When you browse on this site, cookies collect data to enhance your experience and personalize the content and advertising you see.
Visit our Privacy Policy to learn more. By continuing to use the site, you agree to this use of cookies and data.
  • In Spain
  • List of Countries
  • For 7 days
  • Water Temperature
  • Satellite Maps
  • Weather Map
  • Weather Widgets
  • user-avatar
    Login

    Hourly Weather Yarcevo

    Today, 25 June, Tuesday

    Time Temperature Precipitation Wind Pressure Humidity
    00:00 +16°C° 0 mm 3 mps 754 mmHg 77%
    01:00 +14°C° 0 mm 3 mps 754 mmHg 77%
    02:00 +15°C° 0 mm 2 mps 754 mmHg 79%
    03:00 +15°C° 0 mm 2 mps 755 mmHg 79%
    04:00 +15°C° 0 mm 2 mps 755 mmHg 79%
    05:00 +15°C° 0 mm 2 mps 755 mmHg 79%
    06:00 +17°C° 0 mm 2 mps 756 mmHg 74%
    07:00 +18°C° 0 mm 3 mps 756 mmHg 69%
    08:00 +19°C° 0 mm 3 mps 756 mmHg 63%
    09:00 +20°C° 0 mm 3 mps 756 mmHg 61%
    10:00 +21°C° 0 mm 3 mps 756 mmHg 59%
    11:00 +22°C° 0 mm 3 mps 756 mmHg 57%
    12:00 +22°C° 0 mm 3 mps 756 mmHg 55%
    13:00 +22°C° 0 mm 3 mps 756 mmHg 54%
    14:00 +22°C° 0 mm 3 mps 756 mmHg 53%
    15:00 +22°C° 0 mm 3 mps 756 mmHg 57%
    16:00 +23°C° 0 mm 2 mps 756 mmHg 62%
    17:00 +23°C° 0 mm 2 mps 756 mmHg 66%
    18:00 +20°C° 0 mm 2 mps 756 mmHg 68%
    19:00 +18°C° 0 mm 2 mps 756 mmHg 70%
    20:00 +17°C° 0 mm 2 mps 756 mmHg 72%
    21:00 +16°C° 0 mm 1 mps 756 mmHg 74%
    22:00 +15°C° 0 mm 1 mps 756 mmHg 77%
    23:00 +14°C° 0 mm 1 mps 756 mmHg 79%

    Tomorrow, 26 June, Wednesday

    Time Temperature Precipitation Wind Pressure Humidity
    00:00 +14°C° 0 mm 1 mps 756 mmHg 80%
    01:00 +13°C° 0 mm 1 mps 756 mmHg 81%
    02:00 +13°C° 0 mm 1 mps 756 mmHg 81%
    03:00 +14°C° 0 mm 1 mps 756 mmHg 81%
    04:00 +15°C° 0 mm 1 mps 756 mmHg 81%
    05:00 +15°C° 0 mm 1 mps 756 mmHg 80%
    06:00 +18°C° 0 mm 1 mps 755 mmHg 76%
    07:00 +19°C° 0 mm 1 mps 755 mmHg 72%
    08:00 +20°C° 0 mm 2 mps 755 mmHg 67%
    09:00 +21°C° 0 mm 2 mps 755 mmHg 63%
    10:00 +23°C° 0 mm 2 mps 754 mmHg 59%
    11:00 +24°C° 0 mm 2 mps 754 mmHg 54%
    12:00 +24°C° 0 mm 3 mps 753 mmHg 55%
    13:00 +25°C° 0 mm 3 mps 753 mmHg 55%
    14:00 +25°C° 0 mm 3 mps 753 mmHg 55%
    15:00 +25°C° 0 mm 3 mps 752 mmHg 59%
    16:00 +24°C° 0 mm 3 mps 751 mmHg 63%
    17:00 +24°C° 0 mm 3 mps 751 mmHg 67%
    18:00 +23°C° 0 mm 2 mps 750 mmHg 70%
    19:00 +20°C° 0 mm 2 mps 750 mmHg 72%
    20:00 +18°C° 0 mm 2 mps 749 mmHg 74%
    21:00 +18°C° 0 mm 2 mps 749 mmHg 77%
    22:00 +17°C° 0 mm 2 mps 748 mmHg 80%
    23:00 +16°C° 0 mm 3 mps 748 mmHg 83%

    Day after tomorrow, 27 June, Thursday

    Time Temperature Precipitation Wind Pressure Humidity
    00:00 +16°C° 0 mm 3 mps 747 mmHg 85%
    01:00 +16°C° 0 mm 3 mps 746 mmHg 88%
    02:00 +14°C° 0 mm 3 mps 746 mmHg 90%
    03:00 +15°C° 0.5 mm 4 mps 745 mmHg 91%
    04:00 +15°C° 0.5 mm 4 mps 744 mmHg 91%
    05:00 +15°C° 0.5 mm 4 mps 743 mmHg 91%
    06:00 +16°C° 0.2 mm 5 mps 742 mmHg 90%
    07:00 +17°C° 0.2 mm 5 mps 741 mmHg 89%
    08:00 +19°C° 0.2 mm 6 mps 741 mmHg 88%
    09:00 +18°C° 2.2 mm 7 mps 740 mmHg 90%
    10:00 +18°C° 2.2 mm 7 mps 739 mmHg 92%
    11:00 +18°C° 2.2 mm 8 mps 738 mmHg 94%
    12:00 +20°C° 1.1 mm 7 mps 737 mmHg 94%
    13:00 +20°C° 1.1 mm 7 mps 736 mmHg 93%
    14:00 +20°C° 1.1 mm 7 mps 736 mmHg 92%
    15:00 +21°C° 0.3 mm 7 mps 735 mmHg 92%
    16:00 +21°C° 0.3 mm 7 mps 735 mmHg 92%
    17:00 +21°C° 0.3 mm 7 mps 734 mmHg 91%
    18:00 +21°C° 0.2 mm 6 mps 734 mmHg 92%
    19:00 +20°C° 0.2 mm 5 mps 734 mmHg 93%
    20:00 +19°C° 0.2 mm 5 mps 734 mmHg 94%
    21:00 +16°C° 0 mm 5 mps 734 mmHg 94%
    22:00 +15°C° 0 mm 5 mps 733 mmHg 93%
    23:00 +14°C° 0 mm 4 mps 733 mmHg 93%

    28 June, Friday

    Time Temperature Precipitation Wind Pressure Humidity
    00:00 +13°C° 0 mm 4 mps 733 mmHg 94%
    01:00 +12°C° 0 mm 5 mps 733 mmHg 94%
    02:00 +12°C° 0 mm 5 mps 733 mmHg 94%
    03:00 +12°C° 0 mm 5 mps 733 mmHg 93%
    04:00 +11°C° 0 mm 6 mps 733 mmHg 92%
    05:00 +13°C° 0 mm 6 mps 733 mmHg 90%
    06:00 +13°C° 0.1 mm 6 mps 733 mmHg 89%
    07:00 +13°C° 0.1 mm 6 mps 732 mmHg 88%
    08:00 +13°C° 0.1 mm 6 mps 732 mmHg 87%
    09:00 +14°C° 0.3 mm 7 mps 732 mmHg 84%
    10:00 +14°C° 0.3 mm 7 mps 732 mmHg 82%
    11:00 +15°C° 0.3 mm 8 mps 732 mmHg 80%
    12:00 +13°C° 0.3 mm 8 mps 732 mmHg 84%
    13:00 +12°C° 0.3 mm 7 mps 732 mmHg 87%
    14:00 +12°C° 0.3 mm 7 mps 732 mmHg 90%
    15:00 +11°C° 0.2 mm 7 mps 732 mmHg 91%
    16:00 +11°C° 0.2 mm 7 mps 732 mmHg 92%
    17:00 +11°C° 0.2 mm 6 mps 732 mmHg 94%
    18:00 +11°C° 0.3 mm 6 mps 733 mmHg 94%
    19:00 +11°C° 0.3 mm 6 mps 733 mmHg 94%
    20:00 +10°C° 0.3 mm 6 mps 733 mmHg 94%
    21:00 +10°C° 0.3 mm 6 mps 734 mmHg 94%
    22:00 +10°C° 0.3 mm 6 mps 734 mmHg 94%
    23:00 +11°C° 0.3 mm 6 mps 734 mmHg 94%

    29 June, Saturday

    Time Temperature Precipitation Wind Pressure Humidity
    00:00 +10°C° 0 mm 6 mps 734 mmHg 93%
    01:00 +10°C° 0 mm 6 mps 734 mmHg 93%
    02:00 +9°C° 0 mm 5 mps 734 mmHg 92%
    03:00 +9°C° 0 mm 5 mps 734 mmHg 91%
    04:00 +8°C° 0 mm 6 mps 735 mmHg 91%
    05:00 +8°C° 0 mm 6 mps 735 mmHg 90%
    06:00 +8°C° 0 mm 6 mps 735 mmHg 88%
    07:00 +8°C° 0 mm 6 mps 735 mmHg 86%
    08:00 +8°C° 0 mm 6 mps 736 mmHg 84%
    09:00 +8°C° 0.1 mm 7 mps 736 mmHg 84%
    10:00 +8°C° 0.1 mm 7 mps 737 mmHg 85%
    11:00 +8°C° 0.1 mm 7 mps 737 mmHg 85%
    12:00 +8°C° 0.1 mm 7 mps 737 mmHg 86%
    13:00 +6°C° 0.1 mm 7 mps 738 mmHg 86%
    14:00 +6°C° 0.1 mm 7 mps 738 mmHg 87%
    15:00 +6°C° 0.1 mm 7 mps 739 mmHg 88%
    16:00 +7°C° 0.1 mm 6 mps 739 mmHg 89%
    17:00 +7°C° 0.1 mm 6 mps 739 mmHg 91%
    18:00 +7°C° 0.4 mm 5 mps 739 mmHg 92%
    19:00 +7°C° 0.4 mm 5 mps 739 mmHg 94%
    20:00 +7°C° 0.4 mm 5 mps 740 mmHg 95%
    21:00 +7°C° 0.6 mm 5 mps 740 mmHg 95%
    22:00 +7°C° 0.6 mm 5 mps 740 mmHg 95%
    23:00 +8°C° 0.6 mm 5 mps 740 mmHg 95%

    30 June, Sunday

    Time Temperature Precipitation Wind Pressure Humidity
    00:00 +8°C° 0.2 mm 4 mps 740 mmHg 94%
    01:00 +8°C° 0.2 mm 4 mps 740 mmHg 94%
    02:00 +9°C° 0.2 mm 3 mps 740 mmHg 94%
    03:00 +8°C° 0 mm 4 mps 740 mmHg 92%
    04:00 +8°C° 0 mm 4 mps 740 mmHg 91%
    05:00 +8°C° 0 mm 4 mps 741 mmHg 90%
    06:00 +10°C° 0 mm 4 mps 741 mmHg 84%
    07:00 +11°C° 0 mm 4 mps 741 mmHg 79%
    08:00 +12°C° 0 mm 5 mps 742 mmHg 74%
    09:00 +13°C° 0 mm 5 mps 742 mmHg 68%
    10:00 +15°C° 0 mm 5 mps 742 mmHg 62%
    11:00 +16°C° 0 mm 5 mps 743 mmHg 56%
    12:00 +16°C° 0.1 mm 5 mps 743 mmHg 57%
    13:00 +16°C° 0.1 mm 5 mps 743 mmHg 58%
    14:00 +17°C° 0.1 mm 5 mps 743 mmHg 59%
    15:00 +18°C° 0.1 mm 4 mps 744 mmHg 61%
    16:00 +17°C° 0.1 mm 4 mps 744 mmHg 64%
    17:00 +17°C° 0.1 mm 3 mps 744 mmHg 66%
    18:00 +16°C° 0 mm 3 mps 744 mmHg 70%
    19:00 +14°C° 0 mm 2 mps 745 mmHg 74%
    20:00 +12°C° 0 mm 2 mps 745 mmHg 78%
    21:00 +12°C° 0 mm 2 mps 745 mmHg 80%
    22:00 +10°C° 0 mm 2 mps 745 mmHg 82%
    23:00 +9°C° 0 mm 2 mps 745 mmHg 84%
    Show more